Voltar ao catálogo

STARLINK-6276

AtivoComunicaçõesVLEO
NORAD 57355·PAYLOAD·🇺🇸 United States

Lançado Jul 16, 2023 de Cape Canaveral Space Force Station

Loading…

Próximas Passagens (próximas 24 horas)

TLE

AtualizadoSource: CelesTrak SupGP

Época: Sep 15, 2026, 03:04 UTC

1 57355C 23099AD  26258.12826389 -.00026387  00000+0 -95590-3 0  2586
2 57355  43.0030 252.1899 0001127 299.7460 193.5588 15.27586246    17

Acompanhe STARLINK-6276 em tempo real com AllMySat

Download on the App Store